This is the latest recevied weather packets stored in our database for station/object KC3AWA. If no packets are shown the sender has not sent any weather packets the latest 10 day(s).
| Time | Temp. | Humidity | Pressure | Rain* | Wind** | Luminosity | Snow |
|---|---|---|---|---|---|---|---|
| 1777751214 | 7.22° C | 53% | 1016.4 hPa | 0 mm | - | 728 W/m² | - |
| 1777750910 | 6.67° C | 59% | 1016.4 hPa | 0 mm | - | 917 W/m² | - |
| 1777750607 | 6.67° C | 58% | 1016.7 hPa | 0 mm | - | 493 W/m² | - |
| 1777750304 | 6.11° C | 58% | 1016.4 hPa | 0 mm | - | 487 W/m² | - |
| 1777749999 | 6.67° C | 58% | 1016.3 hPa | 0 mm | - | 363 W/m² | - |
| 1777749697 | 6.67° C | 55% | 1016.5 hPa | 0 mm | - | 399 W/m² | - |
| 1777749394 | 6.67° C | 58% | 1016.6 hPa | 0 mm | - | 446 W/m² | - |
| 1777749091 | 5.56° C | 62% | 1016.6 hPa | 0 mm | - | 397 W/m² | - |
| 1777748788 | 5.56° C | 68% | 1016.7 hPa | 0 mm | - | 369 W/m² | - |
| 1777748487 | 5.56° C | 72% | 1016.8 hPa | 0 mm | - | 356 W/m² | - |
| 1777748180 | 5° C | 72% | 1016.8 hPa | 0 mm | - | 231 W/m² | - |
| 1777747878 | 5° C | 77% | 1016.8 hPa | 0 mm | - | 232 W/m² | - |
| 1777747574 | 5° C | 74% | 1017.1 hPa | 0 mm | - | 275 W/m² | - |
| 1777747269 | 5° C | 73% | 1016.8 hPa | 0 mm | - | 158 W/m² | - |
| 1777746966 | 4.44° C | 74% | 1016.9 hPa | 0 mm | - | 111 W/m² | - |
| 1777746662 | 5° C | 76% | 1016.8 hPa | 0 mm | - | 91 W/m² | - |
| 1777746357 | 4.44° C | 77% | 1017.1 hPa | 0 mm | - | 128 W/m² | - |
| 1777746053 | 5° C | 75% | 1016.9 hPa | 0 mm | - | 160 W/m² | - |
| 1777745751 | 4.44° C | 80% | 1016.9 hPa | 0 mm | - | 239 W/m² | - |
| 1777745450 | 4.44° C | 80% | 1017 hPa | 0 mm | - | 256 W/m² | - |
| 1777745147 | 4.44° C | 82% | 1016.9 hPa | 0 mm | - | 133 W/m² | - |
| 1777744843 | 4.44° C | 82% | 1016.9 hPa | 0 mm | - | 129 W/m² | - |
| 1777744538 | 4.44° C | 81% | 1016.8 hPa | 0 mm | - | 209 W/m² | - |
| 1777744234 | 4.44° C | 85% | 1017 hPa | 0 mm | - | 409 W/m² | - |
| 1777743931 | 3.89° C | 88% | 1017 hPa | 0 mm | - | 415 W/m² | - |
* Rain latest hour (hover to see other rain measurements)
** Current wind speed in m/s (hover to see current wind gust speed)